Weather in Shakhtarsk

Ukraine / Donetsk Region     48˚02′29″N   38˚28′55″E
temp.,
°C
wind,
m/s
gust,
m/s
humid.,
%
clouds,
%
prec.,
mm/h
press.,
hPa
HPBL,
m
2 december, wed
wed223:00−1˚ese71281100 0.0 1028679
02:00−1˚e71183100 0.0 1028601
05:00−1˚e71185100 0.0 1028433
08:00−1˚e71185100 0.0 1029488
11:00e6107995 0.0 1029523
14:00+1˚ese7107796 0.0 1028643
17:00−1˚e71178100 0.0 1029514
20:00−1˚ese71281100 0.0 1030530
3 december, thu
thu323:00−1˚ese71284100 0.0 1030544
02:00ese71186100 0.0 1030455
05:00−1˚ese71285100 0.0 1029484
08:00−1˚ese71185100 0.0 1030521
11:00+1˚ese71184100 0.0 1030616
14:00+1˚ese71083100 0.0 1029573
17:00+1˚ese71186100 0.0 1029569
20:00ese61187100 0.0 1029573
4 december, fri
fri423:00ese61186100 0.0 1029455
02:00−1˚ese61186100 0.0 1030449
05:00−1˚e6108599 0.0 1029437
08:00ese6108599 0.0 1030441
11:00+1˚ese71083100 0.0 1029446
14:00e61082100 0.0 1029496
17:00e71181100 0.0 1030551
20:00e71178100 0.0 1030539
5 december, sat
sat523:00−1˚e7127299 0.0 1031500
02:00−2˚e7127494 0.0 1031472
05:00−3˚e7137540 0.0 1031445
08:00−3˚e7137024 0.0 1032466
11:00e813530 0.0 1032565
14:00+1˚e812440 0.0 1031640
17:00−3˚e815560 0.0 1032493
20:00−4˚e715540 0.0 1033473
6 december, sun
sun623:00−5˚e714550 0.0 1033443
02:00−5˚e713560 0.0 1033417
05:00−6˚e714570 0.0 1033393
08:00−6˚e814530 0.0 1034425
11:00−2˚e712400 0.0 1034502
14:00−2˚e712400 0.0 1033546
17:00−5˚e714540 0.0 1033441
20:00−5˚e713700 0.0 1034475